Time,TemperatureF,DewpointF,PressureIn,WindDirection,WindDirectionDegrees,WindSpeedMPH,WindSpeedGustMPH,Humidity,HourlyPrecipIn,Conditions,Clouds,dailyrainin,SoftwareType,DateUTC
2013-07-20 00:00:00,70.3,67.9,29.91,SE,132,0.0,0.0,92,0.00,,---,0.83,VWS V14.01,2013-07-20 04:00:00,
2013-07-20 00:01:00,70.3,67.9,29.90,SE,132,0.0,0.0,92,0.00,,---,0.00,VWS V14.01,2013-07-20 04:01:00,
2013-07-20 00:06:00,70.3,67.9,29.90,SE,132,0.0,0.0,92,0.00,,---,0.00,VWS V14.01,2013-07-20 04:06:00,
2013-07-20 00:11:00,70.2,67.8,29.90,SE,132,0.0,0.0,92,0.00,,---,0.00,VWS V14.01,2013-07-20 04:11:00,
2013-07-20 00:16:00,70.1,67.7,29.89,SE,132,0.0,0.0,92,0.00,,---,0.00,VWS V14.01,2013-07-20 04:16:00,
2013-07-20 00:21:00,70.0,67.6,29.89,SE,132,0.0,0.0,92,0.00,,---,0.00,VWS V14.01,2013-07-20 04:21:00,
2013-07-20 00:26:00,70.0,67.6,29.89,SE,132,0.0,0.0,92,0.00,,---,0.00,VWS V14.01,2013-07-20 04:26:00,
2013-07-20 00:30:00,69.9,67.5,29.90,SE,132,0.0,0.0,92,0.00,,---,0.00,VWS V14.01,2013-07-20 04:30:00,
2013-07-20 00:31:00,69.9,67.8,29.90,SE,132,0.0,0.0,93,0.00,,---,0.00,VWS V14.01,2013-07-20 04:31:00,
2013-07-20 00:36:00,69.8,67.4,29.89,SE,132,0.0,0.0,92,0.00,,---,0.00,VWS V14.01,2013-07-20 04:36:00,
2013-07-20 00:41:00,69.8,67.4,29.89,SE,132,0.0,0.0,92,0.00,,---,0.00,VWS V14.01,2013-07-20 04:41:00,
2013-07-20 00:46:00,69.8,67.4,29.90,SE,132,0.0,0.0,92,0.00,,---,0.00,VWS V14.01,2013-07-20 04:46:00,
2013-07-20 00:51:00,69.7,67.3,29.90,SE,132,0.0,0.0,92,0.00,,---,0.00,VWS V14.01,2013-07-20 04:51:00,
2013-07-20 00:56:00,69.7,67.3,29.90,SE,132,0.0,0.0,92,0.00,,---,0.00,VWS V14.01,2013-07-20 04:56:00,
2013-07-20 01:00:00,69.6,67.2,29.90,SE,132,0.0,0.0,92,0.00,,---,0.00,VWS V14.01,2013-07-20 05:00:00,
2013-07-20 01:01:00,69.6,67.2,29.90,SE,132,0.0,0.0,92,0.00,,---,0.00,VWS V14.01,2013-07-20 05:01:00,
2013-07-20 01:06:00,69.6,67.2,29.90,SE,132,0.0,0.0,92,0.00,,---,0.00,VWS V14.01,2013-07-20 05:06:00,
2013-07-20 01:11:00,69.5,67.4,29.90,SE,132,0.0,0.0,93,0.00,,---,0.00,VWS V14.01,2013-07-20 05:11:00,
2013-07-20 01:16:00,69.5,67.4,29.90,SE,132,0.0,0.0,93,0.00,,---,0.00,VWS V14.01,2013-07-20 05:16:00,
2013-07-20 01:21:00,69.5,67.4,29.90,SE,132,0.0,0.0,93,0.00,,---,0.00,VWS V14.01,2013-07-20 05:21:00,
2013-07-20 01:26:00,69.4,67.3,29.90,SE,132,0.0,0.0,93,0.00,,---,0.00,VWS V14.01,2013-07-20 05:26:00,
2013-07-20 01:30:00,69.4,67.3,29.90,SE,132,0.0,0.0,93,0.00,,---,0.00,VWS V14.01,2013-07-20 05:30:00,
2013-07-20 01:31:00,69.4,67.3,29.90,SE,132,0.0,0.0,93,0.00,,---,0.00,VWS V14.01,2013-07-20 05:31:00,
2013-07-20 01:36:00,69.3,67.2,29.91,SE,132,0.0,0.0,93,0.00,,---,0.00,VWS V14.01,2013-07-20 05:36:00,
2013-07-20 01:41:00,69.3,67.2,29.91,SE,132,0.0,0.0,93,0.00,,---,0.00,VWS V14.01,2013-07-20 05:41:00,
2013-07-20 01:46:00,69.2,66.8,29.91,SE,132,0.0,0.0,92,0.00,,---,0.00,VWS V14.01,2013-07-20 05:46:00,
2013-07-20 01:51:00,69.2,66.8,29.91,SE,132,0.0,0.0,92,0.00,,---,0.00,VWS V14.01,2013-07-20 05:51:00,
2013-07-20 01:56:00,69.3,67.2,29.91,SE,132,0.0,0.0,93,0.00,,---,0.00,VWS V14.01,2013-07-20 05:56:00,
2013-07-20 02:00:00,69.3,67.2,29.92,SE,132,0.0,0.0,93,0.00,,---,0.00,VWS V14.01,2013-07-20 06:00:00,
2013-07-20 02:01:00,69.3,67.2,29.92,SE,132,0.0,0.0,93,0.00,,---,0.00,VWS V14.01,2013-07-20 06:01:00,
2013-07-20 02:06:00,69.4,67.3,29.92,SE,132,0.0,0.0,93,0.00,,---,0.00,VWS V14.01,2013-07-20 06:06:00,
2013-07-20 02:11:00,69.4,67.3,29.92,SE,132,0.0,0.0,93,0.00,,---,0.00,VWS V14.01,2013-07-20 06:11:00,
2013-07-20 02:16:00,69.4,67.3,29.92,SE,132,0.0,0.0,93,0.00,,---,0.00,VWS V14.01,2013-07-20 06:16:00,
2013-07-20 02:21:00,69.4,67.3,29.92,SE,132,0.0,0.0,93,0.00,,---,0.00,VWS V14.01,2013-07-20 06:21:00,
2013-07-20 02:26:00,69.5,67.4,29.92,SE,132,0.0,0.0,93,0.00,,---,0.00,VWS V14.01,2013-07-20 06:26:00,
2013-07-20 02:30:00,69.5,67.4,29.92,SE,132,0.0,0.0,93,0.00,,---,0.00,VWS V14.01,2013-07-20 06:30:00,
2013-07-20 02:31:00,69.5,67.4,29.92,SE,132,0.0,0.0,93,0.00,,---,0.00,VWS V14.01,2013-07-20 06:31:00,
2013-07-20 02:36:00,69.5,67.4,29.91,SE,132,0.0,0.0,93,0.00,,---,0.00,VWS V14.01,2013-07-20 06:36:00,
2013-07-20 02:41:00,69.5,67.4,29.91,SE,132,0.0,0.0,93,0.00,,---,0.00,VWS V14.01,2013-07-20 06:41:00,
2013-07-20 02:46:00,69.5,67.4,29.91,SE,132,0.0,0.0,93,0.00,,---,0.00,VWS V14.01,2013-07-20 06:46:00,
2013-07-20 02:51:00,69.6,67.5,29.90,SE,132,0.0,0.0,93,0.00,,---,0.00,VWS V14.01,2013-07-20 06:51:00,
2013-07-20 02:55:00,69.7,67.3,29.90,NNW,330,0.0,0.0,92,0.00,,---,0.00,VWS V14.01,2013-07-20 06:55:00,
2013-07-20 03:00:00,69.7,67.3,29.91,NNW,331,0.0,0.0,92,0.00,,---,0.00,VWS V14.01,2013-07-20 07:00:00,
2013-07-20 03:05:00,69.7,67.3,29.90,WNW,294,0.0,0.0,92,0.00,,---,0.00,VWS V14.01,2013-07-20 07:05:00,
2013-07-20 03:10:00,69.7,67.3,29.90,WNW,294,0.0,0.0,92,0.00,,---,0.00,VWS V14.01,2013-07-20 07:10:00,
2013-07-20 03:15:00,69.8,67.4,29.91,WNW,294,0.0,0.0,92,0.00,,---,0.00,VWS V14.01,2013-07-20 07:15:00,
2013-07-20 03:20:00,69.8,67.4,29.91,WNW,294,0.0,0.0,92,0.00,,---,0.00,VWS V14.01,2013-07-20 07:20:00,
2013-07-20 03:25:00,69.8,67.7,29.90,WNW,294,0.0,0.0,93,0.00,,---,0.00,VWS V14.01,2013-07-20 07:25:00,
2013-07-20 03:30:00,69.8,67.4,29.90,WNW,294,0.0,0.0,92,0.00,,---,0.00,VWS V14.01,2013-07-20 07:30:00,
2013-07-20 03:35:00,69.9,67.8,29.90,SSE,159,0.0,0.0,93,0.00,,---,0.00,VWS V14.01,2013-07-20 07:35:00,
2013-07-20 03:40:00,70.0,67.9,29.89,SSE,157,0.0,0.0,93,0.00,,---,0.00,VWS V14.01,2013-07-20 07:40:00,
2013-07-20 03:45:00,70.0,67.9,29.89,SSE,158,0.0,0.0,93,0.00,,---,0.00,VWS V14.01,2013-07-20 07:45:00,
2013-07-20 03:50:00,70.0,67.9,29.89,SSE,158,0.0,0.0,93,0.00,,---,0.00,VWS V14.01,2013-07-20 07:50:00,
2013-07-20 03:55:00,70.0,67.9,29.88,SSE,159,0.0,0.0,93,0.00,,---,0.00,VWS V14.01,2013-07-20 07:55:00,
2013-07-20 04:00:00,70.1,68.0,29.88,SSE,158,0.0,0.0,93,0.00,,---,0.00,VWS V14.01,2013-07-20 08:00:00,
2013-07-20 04:05:00,70.2,68.1,29.88,SSE,157,0.0,0.0,93,0.00,,---,0.00,VWS V14.01,2013-07-20 08:05:00,
2013-07-20 04:10:00,70.3,68.2,29.88,SSE,157,0.0,0.0,93,0.00,,---,0.00,VWS V14.01,2013-07-20 08:10:00,
2013-07-20 04:15:00,70.4,68.0,29.88,SSE,158,0.0,0.0,92,0.00,,---,0.00,VWS V14.01,2013-07-20 08:15:00,
2013-07-20 04:20:00,70.5,68.1,29.87,SSE,158,0.0,0.0,92,0.00,,---,0.00,VWS V14.01,2013-07-20 08:20:00,
2013-07-20 04:25:00,70.5,68.1,29.87,SSE,158,0.0,0.0,92,0.00,,---,0.00,VWS V14.01,2013-07-20 08:25:00,
2013-07-20 04:30:00,70.6,68.2,29.87,SSE,158,0.0,0.0,92,0.00,,---,0.00,VWS V14.01,2013-07-20 08:30:00,
2013-07-20 04:35:00,70.6,68.2,29.86,SSE,158,0.0,0.0,92,0.00,,---,0.00,VWS V14.01,2013-07-20 08:35:00,
2013-07-20 04:40:00,70.6,68.5,29.86,SSE,157,0.0,0.0,93,0.00,,---,0.00,VWS V14.01,2013-07-20 08:40:00,
2013-07-20 04:45:00,70.7,68.6,29.86,SSE,157,0.0,0.0,93,0.00,,---,0.00,VWS V14.01,2013-07-20 08:45:00,
2013-07-20 04:50:00,70.8,68.7,29.86,SSE,158,0.0,0.0,93,0.00,,---,0.00,VWS V14.01,2013-07-20 08:50:00,
2013-07-20 04:55:00,70.8,68.7,29.86,SSE,159,0.0,0.0,93,0.00,,---,0.00,VWS V14.01,2013-07-20 08:55:00,
2013-07-20 05:00:00,70.8,68.7,29.87,SSE,157,0.0,0.0,93,0.00,,---,0.00,VWS V14.01,2013-07-20 09:00:00,
2013-07-20 05:05:00,70.8,68.7,29.88,SSE,157,0.0,0.0,93,0.00,,---,0.00,VWS V14.01,2013-07-20 09:05:00,
2013-07-20 05:10:00,70.9,68.8,29.88,SSE,159,0.0,0.0,93,0.00,,---,0.00,VWS V14.01,2013-07-20 09:10:00,
2013-07-20 05:15:00,70.9,68.8,29.89,SSE,159,0.0,0.0,93,0.00,,---,0.00,VWS V14.01,2013-07-20 09:15:00,
2013-07-20 05:20:00,70.9,68.8,29.89,SSE,157,0.0,0.0,93,0.00,,---,0.00,VWS V14.01,2013-07-20 09:20:00,
2013-07-20 05:25:00,70.9,68.8,29.89,SSE,158,0.0,0.0,93,0.00,,---,0.00,VWS V14.01,2013-07-20 09:25:00,
2013-07-20 05:30:00,70.9,68.8,29.89,SSE,157,0.0,0.0,93,0.00,,---,0.00,VWS V14.01,2013-07-20 09:30:00,
2013-07-20 05:35:00,70.9,68.8,29.89,SSE,157,0.0,0.0,93,0.00,,---,0.00,VWS V14.01,2013-07-20 09:35:00,
2013-07-20 05:40:00,71.0,68.9,29.90,SSE,158,0.0,0.0,93,0.00,,---,0.00,VWS V14.01,2013-07-20 09:40:00,
2013-07-20 05:45:00,71.0,68.9,29.90,SSE,158,1.0,2.0,93,0.00,,---,0.00,VWS V14.01,2013-07-20 09:45:00,
2013-07-20 05:50:00,71.0,68.9,29.90,SSE,158,0.0,2.0,93,0.00,,---,0.00,VWS V14.01,2013-07-20 09:50:00,
2013-07-20 05:55:00,71.1,68.7,29.90,SSE,157,0.0,2.0,92,0.00,,---,0.00,VWS V14.01,2013-07-20 09:55:00,
2013-07-20 06:00:00,71.2,68.8,29.90,SSE,158,0.0,2.0,92,0.00,,---,0.00,VWS V14.01,2013-07-20 10:00:00,
2013-07-20 06:05:00,71.2,68.8,29.90,SSE,155,0.0,1.0,92,0.00,,---,0.00,VWS V14.01,2013-07-20 10:05:00,
2013-07-20 06:10:00,71.2,68.8,29.91,West,279,0.0,1.0,92,0.00,,---,0.00,VWS V14.01,2013-07-20 10:10:00,
2013-07-20 06:15:00,71.3,68.9,29.91,NE,34,0.0,1.0,92,0.00,,---,0.00,VWS V14.01,2013-07-20 10:15:00,
2013-07-20 06:20:00,71.3,68.9,29.91,NE,34,0.0,1.0,92,0.00,,---,0.00,VWS V14.01,2013-07-20 10:20:00,
2013-07-20 06:25:00,71.3,68.9,29.91,NE,34,0.0,1.0,92,0.00,,---,0.00,VWS V14.01,2013-07-20 10:25:00,
2013-07-20 06:30:00,71.3,68.9,29.91,NE,34,0.0,1.0,92,0.00,,---,0.00,VWS V14.01,2013-07-20 10:30:00,
2013-07-20 06:35:00,71.3,68.9,29.91,NNW,342,0.0,0.0,92,0.00,,---,0.00,VWS V14.01,2013-07-20 10:35:00,
2013-07-20 06:40:00,71.3,68.9,29.91,NNW,342,0.0,0.0,92,0.00,,---,0.00,VWS V14.01,2013-07-20 10:40:00,
2013-07-20 06:45:00,71.3,68.9,29.91,NNW,331,0.0,0.0,92,0.00,,---,0.00,VWS V14.01,2013-07-20 10:45:00,
2013-07-20 06:50:00,71.3,68.9,29.91,NNW,331,0.0,0.0,92,0.00,,---,0.00,VWS V14.01,2013-07-20 10:50:00,
2013-07-20 06:55:00,71.3,69.2,29.91,NNW,331,0.0,0.0,93,0.00,,---,0.00,VWS V14.01,2013-07-20 10:55:00,
2013-07-20 07:00:00,71.6,69.5,29.91,NNW,331,0.0,0.0,93,0.00,,---,0.00,VWS V14.01,2013-07-20 11:00:00,
2013-07-20 07:05:00,71.7,69.6,29.91,NNW,331,0.0,0.0,93,0.00,,---,0.00,VWS V14.01,2013-07-20 11:05:00,
2013-07-20 07:10:00,71.7,69.3,29.91,NNW,331,0.0,0.0,92,0.00,,---,0.00,VWS V14.01,2013-07-20 11:10:00,
2013-07-20 07:15:00,71.8,69.3,29.91,WSW,239,0.0,0.0,92,0.00,,---,0.00,VWS V14.01,2013-07-20 11:15:00,
2013-07-20 07:20:00,71.8,69.3,29.91,North,10,0.0,0.0,92,0.00,,---,0.00,VWS V14.01,2013-07-20 11:20:00,
2013-07-20 07:25:00,71.9,69.4,29.92,North,11,0.0,0.0,92,0.00,,---,0.00,VWS V14.01,2013-07-20 11:25:00,
2013-07-20 07:30:00,72.0,69.6,29.92,North,360,0.0,0.0,92,0.00,,---,0.00,VWS V14.01,2013-07-20 11:30:00,
2013-07-20 07:35:00,72.1,70.0,29.92,North,360,0.0,1.0,93,0.00,,---,0.00,VWS V14.01,2013-07-20 11:35:00,
2013-07-20 07:40:00,72.1,70.0,29.92,NNE,19,1.0,1.0,93,0.00,,---,0.00,VWS V14.01,2013-07-20 11:40:00,
2013-07-20 07:45:00,72.2,70.1,29.92,North,355,0.0,1.0,93,0.00,,---,0.00,VWS V14.01,2013-07-20 11:45:00,
2013-07-20 07:50:00,72.2,70.1,29.92,North,355,0.0,1.0,93,0.00,,---,0.00,VWS V14.01,2013-07-20 11:50:00,
2013-07-20 07:55:00,72.3,70.2,29.92,North,360,0.0,2.0,93,0.00,,---,0.00,VWS V14.01,2013-07-20 11:55:00,
2013-07-20 08:00:00,72.5,70.1,29.92,NE,36,0.0,2.0,92,0.00,,---,0.00,VWS V14.01,2013-07-20 12:00:00,
2013-07-20 08:05:00,72.8,70.7,29.92,NE,36,0.0,0.0,93,0.00,,---,0.00,VWS V14.01,2013-07-20 12:05:00,
2013-07-20 08:10:00,72.8,70.7,29.92,NE,36,0.0,0.0,93,0.00,,---,0.00,VWS V14.01,2013-07-20 12:10:00,
2013-07-20 08:15:00,73.1,70.6,29.92,NE,36,0.0,0.0,92,0.00,,---,0.00,VWS V14.01,2013-07-20 12:15:00,
2013-07-20 08:20:00,73.6,71.5,29.92,NE,36,0.0,0.0,93,0.00,,---,0.00,VWS V14.01,2013-07-20 12:20:00,
2013-07-20 08:25:00,73.9,71.4,29.92,NE,36,0.0,0.0,92,0.00,,---,0.00,VWS V14.01,2013-07-20 12:25:00,
2013-07-20 08:30:00,74.1,71.6,29.92,NE,36,0.0,0.0,92,0.00,,---,0.00,VWS V14.01,2013-07-20 12:30:00,
2013-07-20 08:35:00,74.2,71.7,29.92,NE,36,0.0,0.0,92,0.00,,---,0.00,VWS V14.01,2013-07-20 12:35:00,
2013-07-20 08:40:00,74.4,71.9,29.92,East,92,0.0,1.0,92,0.00,,---,0.00,VWS V14.01,2013-07-20 12:40:00,
2013-07-20 08:45:00,74.6,72.1,29.92,East,92,2.0,2.0,92,0.00,,---,0.00,VWS V14.01,2013-07-20 12:45:00,
2013-07-20 08:50:00,74.9,72.4,29.92,SSE,147,2.0,2.0,92,0.00,,---,0.00,VWS V14.01,2013-07-20 12:50:00,
2013-07-20 08:55:00,75.1,72.6,29.92,WSW,256,0.0,2.0,92,0.00,,---,0.00,VWS V14.01,2013-07-20 12:55:00,
2013-07-20 09:00:00,74.9,72.4,29.91,West,275,0.0,3.0,92,0.00,,---,0.00,VWS V14.01,2013-07-20 13:00:00,
2013-07-20 09:05:00,74.8,72.3,29.92,West,275,0.0,1.0,92,0.00,,---,0.00,VWS V14.01,2013-07-20 13:05:00,
2013-07-20 09:10:00,74.9,72.4,29.92,West,275,0.0,1.0,92,0.00,,---,0.00,VWS V14.01,2013-07-20 13:10:00,
2013-07-20 09:15:00,75.4,72.9,29.92,West,269,0.0,1.0,92,0.00,,---,0.00,VWS V14.01,2013-07-20 13:15:00,
2013-07-20 09:20:00,76.2,73.7,29.91,West,269,0.0,1.0,92,0.00,,---,0.00,VWS V14.01,2013-07-20 13:20:00,
2013-07-20 09:25:00,77.1,74.3,29.92,WSW,257,0.0,1.0,91,0.00,,---,0.00,VWS V14.01,2013-07-20 13:25:00,
2013-07-20 09:30:00,78.3,74.8,29.92,West,259,0.0,1.0,89,0.00,,---,0.00,VWS V14.01,2013-07-20 13:30:00,
2013-07-20 09:35:00,79.7,75.8,29.92,West,271,0.0,1.0,88,0.00,,---,0.00,VWS V14.01,2013-07-20 13:35:00,
2013-07-20 09:40:00,80.7,75.8,29.91,SSE,155,0.0,2.0,85,0.00,,---,0.00,VWS V14.01,2013-07-20 13:40:00,
2013-07-20 09:45:00,81.5,75.8,29.91,West,259,0.0,2.0,83,0.00,,---,0.00,VWS V14.01,2013-07-20 13:45:00,
2013-07-20 09:50:00,82.0,76.3,29.91,WSW,250,2.0,2.0,83,0.00,,---,0.00,VWS V14.01,2013-07-20 13:50:00,
2013-07-20 09:55:00,82.5,76.1,29.91,SW,224,2.0,3.0,81,0.00,,---,0.00,VWS V14.01,2013-07-20 13:55:00,
2013-07-20 10:00:00,82.9,75.7,29.91,SW,219,1.0,3.0,79,0.00,,---,0.00,VWS V14.01,2013-07-20 14:00:00,
2013-07-20 10:05:00,83.1,75.5,29.91,South,178,3.0,5.0,78,0.00,,---,0.00,VWS V14.01,2013-07-20 14:05:00,
2013-07-20 10:10:00,83.2,75.6,29.91,South,182,0.0,6.0,78,0.00,,---,0.00,VWS V14.01,2013-07-20 14:10:00,
2013-07-20 10:15:00,83.8,76.6,29.91,South,182,3.0,6.0,79,0.00,,---,0.00,VWS V14.01,2013-07-20 14:15:00,
2013-07-20 10:20:00,84.4,76.0,29.92,SW,229,2.0,6.0,76,0.00,,---,0.00,VWS V14.01,2013-07-20 14:20:00,
2013-07-20 10:25:00,84.6,74.2,29.92,WSW,256,2.0,6.0,71,0.00,,---,0.00,VWS V14.01,2013-07-20 14:25:00,
2013-07-20 10:30:00,84.7,75.1,29.92,West,272,0.0,6.0,73,0.00,,---,0.00,VWS V14.01,2013-07-20 14:30:00,
2013-07-20 10:35:00,85.3,74.8,29.91,SW,230,3.0,5.0,71,0.00,,---,0.00,VWS V14.01,2013-07-20 14:35:00,
2013-07-20 10:40:00,85.2,73.4,29.92,SW,232,0.0,7.0,68,0.00,,---,0.00,VWS V14.01,2013-07-20 14:40:00,
2013-07-20 10:45:00,85.3,73.6,29.91,SSW,213,3.0,8.0,68,0.00,,---,0.00,VWS V14.01,2013-07-20 14:45:00,
2013-07-20 10:50:00,85.4,74.5,29.91,SSW,199,2.0,8.0,70,0.00,,---,0.00,VWS V14.01,2013-07-20 14:50:00,
2013-07-20 10:55:00,86.1,74.3,29.91,South,179,0.0,8.0,68,0.00,,---,0.00,VWS V14.01,2013-07-20 14:55:00,
2013-07-20 11:00:00,86.8,73.6,29.90,SSW,203,1.0,8.0,65,0.00,,---,0.00,VWS V14.01,2013-07-20 15:00:00,
2013-07-20 11:05:00,87.1,73.9,29.90,SW,236,4.0,6.0,65,0.00,,---,0.00,VWS V14.01,2013-07-20 15:05:00,
2013-07-20 11:09:00,86.8,74.1,29.90,WSW,255,3.0,6.0,66,0.00,,---,0.00,VWS V14.01,2013-07-20 15:09:00,
2013-07-20 11:14:00,86.4,73.2,29.90,SW,214,2.0,6.0,65,0.00,,---,0.00,VWS V14.01,2013-07-20 15:14:00,
2013-07-20 11:19:00,86.6,74.3,29.90,SSW,211,4.0,6.0,67,0.00,,---,0.00,VWS V14.01,2013-07-20 15:19:00,
2013-07-20 11:24:00,86.5,74.7,29.90,SW,218,1.0,6.0,68,0.00,,---,0.00,VWS V14.01,2013-07-20 15:24:00,
2013-07-20 11:29:00,86.1,74.3,29.90,SW,224,1.0,6.0,68,0.00,,---,0.00,VWS V14.01,2013-07-20 15:29:00,
2013-07-20 11:30:00,86.1,74.3,29.90,SW,226,5.0,6.0,68,0.00,,---,0.00,VWS V14.01,2013-07-20 15:30:00,
2013-07-20 11:34:00,85.6,72.9,29.90,WSW,245,0.0,5.0,66,0.00,,---,0.00,VWS V14.01,2013-07-20 15:34:00,
2013-07-20 11:39:00,85.5,73.7,29.90,SSW,200,1.0,5.0,68,0.00,,---,0.00,VWS V14.01,2013-07-20 15:39:00,
2013-07-20 11:44:00,85.5,73.7,29.90,WSW,241,1.0,5.0,68,0.00,,---,0.00,VWS V14.01,2013-07-20 15:44:00,
2013-07-20 11:49:00,85.6,73.8,29.90,South,176,1.0,5.0,68,0.00,,---,0.00,VWS V14.01,2013-07-20 15:49:00,
2013-07-20 11:54:00,86.3,74.1,29.90,SSW,195,2.0,5.0,67,0.00,,---,0.00,VWS V14.01,2013-07-20 15:54:00,
2013-07-20 11:59:00,87.1,74.4,29.90,SSW,208,5.0,7.0,66,0.00,,---,0.00,VWS V14.01,2013-07-20 15:59:00,
2013-07-20 12:00:00,87.1,73.9,29.90,WSW,239,4.0,7.0,65,0.00,,---,0.00,VWS V14.01,2013-07-20 16:00:00,
2013-07-20 12:04:00,87.2,74.5,29.91,WSW,249,0.0,7.0,66,0.00,,---,0.00,VWS V14.01,2013-07-20 16:04:00,
2013-07-20 12:09:00,86.8,74.1,29.90,WSW,252,2.0,7.0,66,0.00,,---,0.00,VWS V14.01,2013-07-20 16:09:00,
2013-07-20 12:14:00,86.7,74.9,29.90,SW,219,1.0,7.0,68,0.00,,---,0.00,VWS V14.01,2013-07-20 16:14:00,
2013-07-20 12:19:00,86.9,74.2,29.90,West,261,2.0,7.0,66,0.00,,---,0.00,VWS V14.01,2013-07-20 16:19:00,
2013-07-20 12:24:00,86.9,74.2,29.90,SW,218,5.0,7.0,66,0.00,,---,0.00,VWS V14.01,2013-07-20 16:24:00,
2013-07-20 12:29:00,86.8,73.6,29.90,WSW,238,3.0,7.0,65,0.00,,---,0.00,VWS V14.01,2013-07-20 16:29:00,
2013-07-20 12:30:00,86.8,73.2,29.90,SW,230,1.0,7.0,64,0.00,,---,0.00,VWS V14.01,2013-07-20 16:30:00,
2013-07-20 12:34:00,87.1,73.4,29.89,SSW,205,2.0,5.0,64,0.00,,---,0.00,VWS V14.01,2013-07-20 16:34:00,
2013-07-20 12:39:00,87.1,73.0,29.90,West,274,0.0,7.0,63,0.00,,---,0.00,VWS V14.01,2013-07-20 16:39:00,
2013-07-20 12:44:00,87.1,73.0,29.90,North,355,2.0,7.0,63,0.00,,---,0.00,VWS V14.01,2013-07-20 16:44:00,
2013-07-20 12:49:00,87.0,72.9,29.89,SW,223,5.0,7.0,63,0.00,,---,0.00,VWS V14.01,2013-07-20 16:49:00,
2013-07-20 12:54:00,86.9,73.3,29.89,WSW,245,2.0,7.0,64,0.00,,---,0.00,VWS V14.01,2013-07-20 16:54:00,
2013-07-20 12:59:00,86.9,74.2,29.90,WSW,243,3.0,7.0,66,0.00,,---,0.00,VWS V14.01,2013-07-20 16:59:00,
2013-07-20 13:00:00,86.9,73.7,29.90,South,188,1.0,7.0,65,0.00,,---,0.00,VWS V14.01,2013-07-20 17:00:00,
2013-07-20 13:04:00,86.7,72.6,29.90,West,265,2.0,7.0,63,0.00,,---,0.00,VWS V14.01,2013-07-20 17:04:00,
2013-07-20 13:09:00,87.2,73.1,29.90,WSW,252,0.0,9.0,63,0.00,,---,0.00,VWS V14.01,2013-07-20 17:09:00,
2013-07-20 13:14:00,87.7,72.6,29.89,SW,223,1.0,9.0,61,0.00,,---,0.00,VWS V14.01,2013-07-20 17:14:00,
2013-07-20 13:19:00,87.8,73.2,29.89,West,263,1.0,9.0,62,0.00,,---,0.00,VWS V14.01,2013-07-20 17:19:00,
2013-07-20 13:24:00,87.4,73.3,29.89,WNW,294,1.0,9.0,63,0.00,,---,0.00,VWS V14.01,2013-07-20 17:24:00,
2013-07-20 13:29:00,87.9,73.3,29.89,WNW,296,1.0,9.0,62,0.00,,---,0.00,VWS V14.01,2013-07-20 17:29:00,
2013-07-20 13:30:00,88.0,73.4,29.89,West,259,5.0,9.0,62,0.00,,---,0.00,VWS V14.01,2013-07-20 17:30:00,
2013-07-20 13:34:00,88.5,73.3,29.89,SSW,207,1.0,6.0,61,0.00,,---,0.00,VWS V14.01,2013-07-20 17:34:00,
2013-07-20 13:39:00,88.1,73.0,29.89,WNW,285,1.0,10.0,61,0.00,,---,0.00,VWS V14.01,2013-07-20 17:39:00,
2013-07-20 13:44:00,88.3,73.2,29.88,WSW,249,1.0,10.0,61,0.00,,---,0.00,VWS V14.01,2013-07-20 17:44:00,
2013-07-20 13:49:00,88.8,73.1,29.88,WSW,257,1.0,10.0,60,0.00,,---,0.00,VWS V14.01,2013-07-20 17:49:00,
2013-07-20 13:54:00,89.0,73.3,29.88,WSW,258,0.0,10.0,60,0.00,,---,0.00,VWS V14.01,2013-07-20 17:54:00,
2013-07-20 13:59:00,88.8,73.1,29.88,NW,319,1.0,10.0,60,0.00,,---,0.00,VWS V14.01,2013-07-20 17:59:00,
2013-07-20 14:00:00,88.8,73.6,29.88,NW,315,1.0,10.0,61,0.00,,---,0.00,VWS V14.01,2013-07-20 18:00:00,
2013-07-20 14:04:00,89.4,72.7,29.88,NW,319,0.0,6.0,58,0.00,,---,0.00,VWS V14.01,2013-07-20 18:04:00,
2013-07-20 14:09:00,90.0,72.2,29.88,SSE,164,1.0,6.0,56,0.00,,---,0.00,VWS V14.01,2013-07-20 18:09:00,
2013-07-20 14:14:00,90.3,72.5,29.87,North,355,0.0,6.0,56,0.00,,---,0.00,VWS V14.01,2013-07-20 18:14:00,
2013-07-20 14:19:00,91.0,74.2,29.87,West,264,6.0,9.0,58,0.00,,---,0.00,VWS V14.01,2013-07-20 18:19:00,
2013-07-20 14:24:00,90.9,73.6,29.87,WSW,257,1.0,9.0,57,0.00,,---,0.00,VWS V14.01,2013-07-20 18:24:00,
2013-07-20 14:29:00,91.2,73.3,29.87,South,187,4.0,9.0,56,0.00,,---,0.00,VWS V14.01,2013-07-20 18:29:00,
2013-07-20 14:30:00,91.2,73.3,29.86,South,186,1.0,9.0,56,0.00,,---,0.00,VWS V14.01,2013-07-20 18:30:00,
2013-07-20 14:34:00,91.2,73.3,29.86,NNW,340,1.0,4.0,56,0.00,,---,0.00,VWS V14.01,2013-07-20 18:34:00,
2013-07-20 14:39:00,91.4,73.0,29.86,SSW,203,1.0,7.0,55,0.00,,---,0.00,VWS V14.01,2013-07-20 18:39:00,
2013-07-20 14:44:00,91.0,73.1,29.86,NW,309,0.0,7.0,56,0.00,,---,0.00,VWS V14.01,2013-07-20 18:44:00,
2013-07-20 14:49:00,90.6,72.8,29.86,SW,225,1.0,7.0,56,0.00,,---,0.00,VWS V14.01,2013-07-20 18:49:00,
2013-07-20 14:54:00,91.1,72.7,29.85,SW,235,1.0,7.0,55,0.00,,---,0.00,VWS V14.01,2013-07-20 18:54:00,
2013-07-20 15:00:00,91.3,73.4,29.85,SW,230,1.0,7.0,56,0.00,,---,0.00,VWS V14.01,2013-07-20 19:00:00,
2013-07-20 15:05:00,91.8,74.4,29.85,NW,316,4.0,6.0,57,0.00,,---,0.00,VWS V14.01,2013-07-20 19:05:00,
2013-07-20 15:10:00,91.7,74.3,29.85,NW,305,0.0,6.0,57,0.00,,---,0.00,VWS V14.01,2013-07-20 19:10:00,
2013-07-20 15:15:00,92.2,73.2,29.84,South,179,4.0,6.0,54,0.00,,---,0.00,VWS V14.01,2013-07-20 19:15:00,
2013-07-20 15:20:00,91.7,73.2,29.84,South,178,1.0,6.0,55,0.00,,---,0.00,VWS V14.01,2013-07-20 19:20:00,
2013-07-20 15:25:00,92.2,73.2,29.84,South,188,0.0,6.0,54,0.00,,---,0.00,VWS V14.01,2013-07-20 19:25:00,
2013-07-20 15:30:00,92.9,73.3,29.84,West,263,0.0,6.0,53,0.00,,---,0.00,VWS V14.01,2013-07-20 19:30:00,
2013-07-20 15:31:00,93.0,73.3,29.84,West,263,0.0,0.0,53,0.00,,---,0.00,VWS V14.01,2013-07-20 19:31:00,
2013-07-20 15:36:00,93.1,74.0,29.84,SW,230,2.0,4.0,54,0.00,,---,0.00,VWS V14.01,2013-07-20 19:36:00,
2013-07-20 15:41:00,92.5,73.4,29.84,South,178,2.0,4.0,54,0.00,,---,0.00,VWS V14.01,2013-07-20 19:41:00,
2013-07-20 15:46:00,91.6,73.2,29.83,WSW,242,0.0,4.0,55,0.00,,---,0.00,VWS V14.01,2013-07-20 19:46:00,
2013-07-20 15:51:00,92.0,74.6,29.83,SW,223,3.0,6.0,57,0.00,,---,0.00,VWS V14.01,2013-07-20 19:51:00,
2013-07-20 15:56:00,92.6,74.1,29.83,SSE,165,1.0,6.0,55,0.00,,---,0.00,VWS V14.01,2013-07-20 19:56:00,
2013-07-20 16:00:00,93.1,74.0,29.83,WSW,248,3.0,7.0,54,0.00,,---,0.00,VWS V14.01,2013-07-20 20:00:00,
2013-07-20 16:01:00,93.1,74.0,29.83,WSW,249,4.0,6.0,54,0.00,,---,0.00,VWS V14.01,2013-07-20 20:01:00,
2013-07-20 16:06:00,93.1,73.4,29.82,South,175,4.0,6.0,53,0.00,,---,0.00,VWS V14.01,2013-07-20 20:06:00,
2013-07-20 16:11:00,93.2,74.1,29.82,SSW,203,3.0,7.0,54,0.00,,---,0.00,VWS V14.01,2013-07-20 20:11:00,
2013-07-20 16:16:00,93.4,74.3,29.82,SW,229,5.0,9.0,54,0.00,,---,0.00,VWS V14.01,2013-07-20 20:16:00,
2013-07-20 16:21:00,93.2,74.1,29.82,South,186,1.0,9.0,54,0.00,,---,0.00,VWS V14.01,2013-07-20 20:21:00,
2013-07-20 16:26:00,93.6,74.5,29.82,SSE,165,2.0,9.0,54,0.00,,---,0.00,VWS V14.01,2013-07-20 20:26:00,
2013-07-20 16:30:00,93.7,72.8,29.82,WNW,297,0.0,9.0,51,0.00,,---,0.00,VWS V14.01,2013-07-20 20:30:00,
2013-07-20 16:31:00,93.7,73.4,29.82,WNW,297,0.0,0.0,52,0.00,,---,0.00,VWS V14.01,2013-07-20 20:31:00,
2013-07-20 16:36:00,94.3,74.6,29.82,WSW,257,0.0,3.0,53,0.00,,---,0.00,VWS V14.01,2013-07-20 20:36:00,
2013-07-20 16:41:00,94.9,75.1,29.81,South,190,2.0,3.0,53,0.00,,---,0.00,VWS V14.01,2013-07-20 20:41:00,
2013-07-20 16:47:00,94.8,74.4,29.81,SE,128,3.0,8.0,52,0.00,,---,0.00,VWS V14.01,2013-07-20 20:47:00,
2013-07-20 16:52:00,93.5,74.4,29.81,South,185,2.0,8.0,54,0.00,,---,0.00,VWS V14.01,2013-07-20 20:52:00,
2013-07-20 16:57:00,92.4,73.9,29.80,SSW,199,1.0,8.0,55,0.00,,---,0.00,VWS V14.01,2013-07-20 20:57:00,
2013-07-20 17:00:00,92.0,74.1,29.81,South,186,1.0,8.0,56,0.00,,---,0.00,VWS V14.01,2013-07-20 21:00:00,
2013-07-20 17:02:00,92.0,74.1,29.81,South,176,2.0,4.0,56,0.00,,---,0.00,VWS V14.01,2013-07-20 21:02:00,
2013-07-20 17:07:00,92.5,74.0,29.81,SSW,210,0.0,5.0,55,0.00,,---,0.00,VWS V14.01,2013-07-20 21:07:00,
2013-07-20 17:12:00,92.9,74.9,29.80,South,190,2.0,6.0,56,0.00,,---,0.00,VWS V14.01,2013-07-20 21:12:00,
2013-07-20 17:17:00,91.7,74.8,29.81,South,178,2.0,6.0,58,0.00,,---,0.00,VWS V14.01,2013-07-20 21:17:00,
2013-07-20 17:22:00,91.0,74.7,29.81,SW,231,0.0,6.0,59,0.00,,---,0.00,VWS V14.01,2013-07-20 21:22:00,
2013-07-20 17:27:00,91.2,75.4,29.81,WSW,244,6.0,11.0,60,0.00,,---,0.00,VWS V14.01,2013-07-20 21:27:00,
2013-07-20 17:30:00,91.1,75.8,29.81,SSW,196,4.0,13.0,61,0.00,,---,0.00,VWS V14.01,2013-07-20 21:30:00,
2013-07-20 17:32:00,90.9,75.6,29.81,SSW,209,6.0,12.0,61,0.00,,---,0.00,VWS V14.01,2013-07-20 21:32:00,
2013-07-20 17:37:00,89.5,75.2,29.82,WSW,251,1.0,12.0,63,0.00,,---,0.00,VWS V14.01,2013-07-20 21:37:00,
2013-07-20 17:42:00,87.7,74.0,29.82,WSW,250,5.0,12.0,64,0.00,,---,0.00,VWS V14.01,2013-07-20 21:42:00,
2013-07-20 17:48:00,86.3,71.8,29.82,SW,236,4.0,12.0,62,0.00,,---,0.00,VWS V14.01,2013-07-20 21:48:00,
2013-07-20 17:53:00,85.3,71.3,29.83,SW,216,3.0,12.0,63,0.00,,---,0.00,VWS V14.01,2013-07-20 21:53:00,
2013-07-20 17:58:00,84.4,69.5,29.83,WSW,242,6.0,12.0,61,0.00,,---,0.00,VWS V14.01,2013-07-20 21:58:00,
2013-07-20 18:00:00,84.1,69.2,29.83,WSW,255,6.0,12.0,61,0.00,,---,0.00,VWS V14.01,2013-07-20 22:00:00,
2013-07-20 18:03:00,83.7,69.3,29.84,SW,219,4.0,12.0,62,0.00,,---,0.00,VWS V14.01,2013-07-20 22:03:00,
2013-07-20 18:08:00,83.3,69.4,29.83,WSW,243,4.0,12.0,63,0.00,,---,0.00,VWS V14.01,2013-07-20 22:08:00,
2013-07-20 18:13:00,83.8,69.9,29.83,SSE,166,2.0,12.0,63,0.00,,---,0.00,VWS V14.01,2013-07-20 22:13:00,
2013-07-20 18:18:00,84.2,70.2,29.83,SSE,147,3.0,12.0,63,0.00,,---,0.00,VWS V14.01,2013-07-20 22:18:00,
2013-07-20 18:23:00,84.6,70.6,29.83,South,173,2.0,12.0,63,0.00,,---,0.00,VWS V14.01,2013-07-20 22:23:00,
2013-07-20 18:28:00,84.8,70.3,29.83,South,190,1.0,12.0,62,0.00,,---,0.00,VWS V14.01,2013-07-20 22:28:00,
2013-07-20 18:30:00,85.1,71.1,29.83,South,190,0.0,12.0,63,0.00,,---,0.00,VWS V14.01,2013-07-20 22:30:00,
2013-07-20 18:33:00,86.0,71.0,29.82,South,190,2.0,3.0,61,0.00,,---,0.00,VWS V14.01,2013-07-20 22:33:00,
2013-07-20 18:38:00,87.1,71.5,29.82,South,190,0.0,3.0,60,0.00,,---,0.00,VWS V14.01,2013-07-20 22:38:00,
2013-07-20 18:43:00,88.0,71.4,29.82,SSW,192,2.0,3.0,58,0.00,,---,0.00,VWS V14.01,2013-07-20 22:43:00,
2013-07-20 18:48:00,88.1,70.4,29.82,South,173,3.0,4.0,56,0.00,,---,0.00,VWS V14.01,2013-07-20 22:48:00,
2013-07-20 18:54:00,87.6,70.5,29.82,SW,227,4.0,4.0,57,0.00,,---,0.00,VWS V14.01,2013-07-20 22:54:00,
2013-07-20 18:58:00,87.2,70.1,29.82,SW,218,1.0,6.0,57,0.00,,---,0.00,VWS V14.01,2013-07-20 22:58:00,
2013-07-20 19:00:00,87.1,70.5,29.82,SSW,196,2.0,6.0,58,0.00,,---,0.00,VWS V14.01,2013-07-20 23:00:00,
2013-07-20 19:04:00,86.9,70.4,29.82,SW,232,0.0,4.0,58,0.00,,---,0.00,VWS V14.01,2013-07-20 23:04:00,
2013-07-20 19:09:00,86.3,70.8,29.83,WSW,246,0.0,6.0,60,0.00,,---,0.00,VWS V14.01,2013-07-20 23:09:00,
2013-07-20 19:14:00,85.4,70.9,29.83,SW,233,0.0,9.0,62,0.00,,---,0.00,VWS V14.01,2013-07-20 23:14:00,
2013-07-20 19:19:00,84.8,70.8,29.83,SW,232,0.0,9.0,63,0.00,,---,0.00,VWS V14.01,2013-07-20 23:19:00,
2013-07-20 19:24:00,84.4,70.9,29.84,SW,232,0.0,9.0,64,0.00,,---,0.00,VWS V14.01,2013-07-20 23:24:00,
2013-07-20 19:29:00,83.7,70.7,29.84,SW,232,1.0,9.0,65,0.00,,---,0.00,VWS V14.01,2013-07-20 23:29:00,
2013-07-20 19:30:00,83.5,70.9,29.84,SW,232,0.0,9.0,66,0.00,,---,0.00,VWS V14.01,2013-07-20 23:30:00,
2013-07-20 19:34:00,83.2,71.1,29.84,SW,232,0.0,0.0,67,0.00,,---,0.00,VWS V14.01,2013-07-20 23:34:00,
2013-07-20 19:39:00,82.6,70.5,29.84,SW,232,0.0,1.0,67,0.00,,---,0.00,VWS V14.01,2013-07-20 23:39:00,
2013-07-20 19:44:00,82.4,70.8,29.84,SW,232,0.0,1.0,68,0.00,,---,0.00,VWS V14.01,2013-07-20 23:44:00,
2013-07-20 19:49:00,82.1,70.9,29.84,SW,232,0.0,2.0,69,0.00,,---,0.00,VWS V14.01,2013-07-20 23:49:00,
2013-07-20 19:54:00,81.8,71.1,29.84,ENE,64,0.0,2.0,70,0.00,,---,0.00,VWS V14.01,2013-07-20 23:54:00,
2013-07-20 19:59:00,81.5,70.8,29.84,ENE,64,0.0,2.0,70,0.00,,---,0.00,VWS V14.01,2013-07-20 23:59:00,
2013-07-20 20:00:00,81.4,71.1,29.84,SSE,161,0.0,2.0,71,0.00,,---,0.00,VWS V14.01,2013-07-21 00:00:00,
2013-07-20 20:04:00,81.1,70.8,29.84,South,188,0.0,1.0,71,0.00,,---,0.00,VWS V14.01,2013-07-21 00:04:00,
2013-07-20 20:10:00,80.9,71.4,29.85,NNW,329,0.0,1.0,73,0.00,,---,0.00,VWS V14.01,2013-07-21 00:10:00,
2013-07-20 20:15:00,80.5,71.1,29.85,NNW,329,0.0,1.0,73,0.00,,---,0.00,VWS V14.01,2013-07-21 00:15:00,
2013-07-20 20:20:00,80.2,71.2,29.85,NNW,329,0.0,1.0,74,0.00,,---,0.00,VWS V14.01,2013-07-21 00:20:00,
2013-07-20 20:25:00,79.9,71.7,29.84,NNW,330,0.0,1.0,76,0.00,,---,0.00,VWS V14.01,2013-07-21 00:25:00,
2013-07-20 20:30:00,79.4,71.2,29.85,NNW,337,1.0,1.0,76,0.00,,---,0.00,VWS V14.01,2013-07-21 00:30:00,
2013-07-20 20:35:00,79.3,71.1,29.85,NNW,340,0.0,0.0,76,0.00,,---,0.00,VWS V14.01,2013-07-21 00:35:00,
2013-07-20 20:40:00,79.3,71.1,29.84,NNW,340,0.0,0.0,76,0.00,,---,0.00,VWS V14.01,2013-07-21 00:40:00,
2013-07-20 20:45:00,79.3,71.1,29.84,NNW,340,0.0,1.0,76,0.00,,---,0.00,VWS V14.01,2013-07-21 00:45:00,
2013-07-20 20:50:00,79.3,71.1,29.84,NNW,340,0.0,1.0,76,0.00,,---,0.00,VWS V14.01,2013-07-21 00:50:00,
2013-07-20 20:55:00,79.3,71.1,29.84,NNW,340,0.0,1.0,76,0.00,,---,0.00,VWS V14.01,2013-07-21 00:55:00,
2013-07-20 21:00:00,79.3,71.1,29.84,NNW,340,0.0,1.0,76,0.00,,---,0.00,VWS V14.01,2013-07-21 01:00:00,
2013-07-20 21:05:00,79.2,71.8,29.83,NNW,340,0.0,0.0,78,0.00,,---,0.00,VWS V14.01,2013-07-21 01:05:00,
2013-07-20 21:10:00,78.8,71.7,29.84,NNW,340,0.0,0.0,79,0.00,,---,0.00,VWS V14.01,2013-07-21 01:10:00,
2013-07-20 21:15:00,78.5,71.4,29.84,NNW,340,0.0,0.0,79,0.00,,---,0.00,VWS V14.01,2013-07-21 01:15:00,
2013-07-20 21:20:00,77.9,71.2,29.84,NNW,340,0.0,0.0,80,0.00,,---,0.00,VWS V14.01,2013-07-21 01:20:00,
2013-07-20 21:25:00,77.5,71.2,29.85,NNW,340,0.0,0.0,81,0.00,,---,0.00,VWS V14.01,2013-07-21 01:25:00,
2013-07-20 21:30:00,77.2,70.9,29.85,NNW,340,0.0,0.0,81,0.00,,---,0.00,VWS V14.01,2013-07-21 01:30:00,
2013-07-20 21:35:00,76.9,71.0,29.85,NNW,340,0.0,0.0,82,0.00,,---,0.00,VWS V14.01,2013-07-21 01:35:00,
2013-07-20 21:40:00,76.7,70.8,29.85,NNW,340,0.0,0.0,82,0.00,,---,0.00,VWS V14.01,2013-07-21 01:40:00,
2013-07-20 21:45:00,76.7,70.8,29.85,NNW,340,0.0,0.0,82,0.00,,---,0.00,VWS V14.01,2013-07-21 01:45:00,
2013-07-20 21:50:00,76.7,70.4,29.86,NNW,340,0.0,0.0,81,0.00,,---,0.00,VWS V14.01,2013-07-21 01:50:00,
2013-07-20 21:56:00,76.5,71.3,29.86,NE,49,0.0,0.0,84,0.00,,---,0.00,VWS V14.01,2013-07-21 01:56:00,
2013-07-20 22:00:00,75.8,71.0,29.86,NE,51,0.0,0.0,85,0.00,,---,0.00,VWS V14.01,2013-07-21 02:00:00,
2013-07-20 22:01:00,75.7,71.2,29.86,NE,51,0.0,0.0,86,0.00,,---,0.00,VWS V14.01,2013-07-21 02:01:00,
2013-07-20 22:06:00,75.1,71.0,29.86,NE,51,0.0,0.0,87,0.00,,---,0.00,VWS V14.01,2013-07-21 02:06:00,
2013-07-20 22:11:00,74.8,70.7,29.86,NE,51,0.0,0.0,87,0.00,,---,0.00,VWS V14.01,2013-07-21 02:11:00,
2013-07-20 22:16:00,74.6,70.5,29.86,NE,51,0.0,0.0,87,0.00,,---,0.00,VWS V14.01,2013-07-21 02:16:00,
2013-07-20 22:21:00,74.7,70.6,29.86,NE,51,0.0,0.0,87,0.00,,---,0.00,VWS V14.01,2013-07-21 02:21:00,
2013-07-20 22:26:00,74.7,70.6,29.86,NE,51,0.0,0.0,87,0.00,,---,0.00,VWS V14.01,2013-07-21 02:26:00,
2013-07-20 22:30:00,74.7,70.6,29.87,NE,51,0.0,0.0,87,0.00,,---,0.00,VWS V14.01,2013-07-21 02:30:00,
2013-07-20 22:31:00,74.6,70.5,29.87,NE,51,0.0,0.0,87,0.00,,---,0.00,VWS V14.01,2013-07-21 02:31:00,
2013-07-20 22:36:00,74.3,70.5,29.87,NE,51,0.0,0.0,88,0.00,,---,0.00,VWS V14.01,2013-07-21 02:36:00,
2013-07-20 22:41:00,74.0,70.2,29.87,NE,51,0.0,0.0,88,0.00,,---,0.00,VWS V14.01,2013-07-21 02:41:00,
2013-07-20 22:47:00,73.9,70.1,29.87,NE,51,0.0,0.0,88,0.00,,---,0.00,VWS V14.01,2013-07-21 02:47:00,
2013-07-20 22:52:00,73.9,70.1,29.88,NE,51,0.0,0.0,88,0.00,,---,0.00,VWS V14.01,2013-07-21 02:52:00,
2013-07-20 22:57:00,73.9,70.1,29.88,NE,51,0.0,0.0,88,0.00,,---,0.00,VWS V14.01,2013-07-21 02:57:00,
2013-07-20 23:00:00,73.8,70.0,29.88,NE,51,0.0,0.0,88,0.00,,---,0.00,VWS V14.01,2013-07-21 03:00:00,
2013-07-20 23:02:00,73.8,70.0,29.88,NE,51,0.0,0.0,88,0.00,,---,0.00,VWS V14.01,2013-07-21 03:02:00,
2013-07-20 23:07:00,73.7,70.3,29.88,NE,51,0.0,0.0,89,0.00,,---,0.00,VWS V14.01,2013-07-21 03:07:00,
2013-07-20 23:12:00,73.6,70.2,29.88,NE,51,0.0,0.0,89,0.00,,---,0.00,VWS V14.01,2013-07-21 03:12:00,
2013-07-20 23:17:00,73.5,70.1,29.88,NE,51,0.0,0.0,89,0.00,,---,0.00,VWS V14.01,2013-07-21 03:17:00,
2013-07-20 23:22:00,73.4,70.0,29.88,NE,51,0.0,0.0,89,0.00,,---,0.00,VWS V14.01,2013-07-21 03:22:00,
2013-07-20 23:27:00,73.3,69.9,29.89,NE,51,0.0,0.0,89,0.00,,---,0.00,VWS V14.01,2013-07-21 03:27:00,
2013-07-20 23:30:00,73.3,69.9,29.89,NE,51,0.0,0.0,89,0.00,,---,0.00,VWS V14.01,2013-07-21 03:30:00,
2013-07-20 23:32:00,73.1,69.7,29.89,NE,51,0.0,0.0,89,0.00,,---,0.00,VWS V14.01,2013-07-21 03:32:00,
2013-07-20 23:37:00,72.9,69.5,29.89,NE,51,0.0,0.0,89,0.00,,---,0.00,VWS V14.01,2013-07-21 03:37:00,
2013-07-20 23:42:00,72.7,69.3,29.89,NE,51,0.0,0.0,89,0.00,,---,0.00,VWS V14.01,2013-07-21 03:42:00,
2013-07-20 23:47:00,72.7,69.3,29.89,NE,51,0.0,0.0,89,0.00,,---,0.00,VWS V14.01,2013-07-21 03:47:00,
2013-07-20 23:53:00,72.8,69.4,29.89,NE,51,0.0,0.0,89,0.00,,---,0.00,VWS V14.01,2013-07-21 03:53:00,
2013-07-20 23:58:00,72.8,69.0,29.89,NE,51,0.0,0.0,88,0.00,,---,0.00,VWS V14.01,2013-07-21 03:58:00,